Wind_Speed
60 61 63 65 67 68 68 68 68 66 64 64 63 63 63 63 63 63 63 63 62 63 63 63 63 63 63 64 63 63 62 61 60 58 56 55 54 53
62 64 65 67 68 69 69 69 69 68 66 65 64 63 61 61 61 62 61 61 61 61 61 61 61 62 63 64 65 65 65 64 62 60 58 56 55 54
64 65 67 68 68 69 69 69 68 68 67 64 62 59 56 54 52 52 52 52 52 53 54 54 54 55 57 60 62 64 64 64 63 62 59 58 56 55
64 66 67 68 68 68 68 67 66 64 62 57 52 49 47 45 44 43 42 42 43 43 44 45 45 47 49 53 56 59 61 62 62 61 60 58 56 55
65 67 67 68 67 66 65 62 58 55 52 48 44 42 40 39 38 36 36 36 36 37 38 38 39 41 43 46 49 52 55 57 58 58 59 58 57 56
65 66 66 65 63 60 56 53 50 47 45 42 38 36 33 33 32 31 31 31 32 32 32 33 34 36 38 40 42 45 48 50 52 54 55 56 56 55
63 63 61 58 55 52 49 46 44 41 38 35 32 29 27 27 28 27 26 26 25 26 27 28 29 30 32 34 36 38 40 42 45 47 49 51 52 53
60 57 54 51 48 46 44 41 38 35 31 27 24 22 22 22 22 21 20 20 20 22 22 23 24 24 25 27 28 30 32 35 37 40 43 46 48 49
53 50 47 44 42 39 36 33 30 25 20 17 16 17 17 16 15 14 14 13 14 16 16 16 16 17 18 19 21 23 26 29 32 35 38 41 44 45
46 43 40 37 34 31 28 24 20 16 13 12 12 12 11 10 9 9 8 8 9 10 9 10 11 12 14 16 18 20 23 26 29 32 35 38 41 43
39 37 34 30 28 24 19 15 12 9 8 8 7 6 6 6 6 6 6 6 6 6 7 7 8 10 11 13 16 19 22 24 27 30 32 35 38 40
33 31 27 24 20 16 12 9 7 6 6 5 5 5 5 6 7 7 7 7 7 7 7 7 8 9 10 12 14 18 21 24 26 29 31 34 37 38
25 22 19 16 13 9 7 6 6 7 7 7 8 8 8 8 9 9 9 9 8 7 6 6 7 8 9 11 12 15 19 22 25 28 31 34 36 37
17 14 12 10 8 6 7 8 9 9 10 9 9 9 9 10 10 10 10 10 9 7 6 4 3 2 3 5 8 11 15 19 23 26 30 33 35 36
11 9 7 6 6 8 9 10 11 11 10 10 9 10 11 11 12 12 11 11 9 8 7 6 5 3 1 2 3 6 10 14 19 24 28 31 34 36
7 6 6 8 10 11 12 12 11 11 10 10 10 11 12 13 14 14 13 13 11 11 10 10 9 8 7 5 4 3 5 9 15 20 24 29 33 35
5 7 9 11 13 13 12 11 11 10 10 10 11 12 13 14 16 16 15 14 14 14 14 13 13 14 14 12 11 10 10 10 14 18 21 26 30 33
8 10 12 13 12 11 11 11 10 10 11 11 12 13 14 15 16 17 17 16 16 16 16 17 18 19 18 17 17 17 16 16 18 19 21 24 28 31
11 12 12 12 11 11 10 10 11 11 11 12 13 13 14 15 17 18 18 18 18 18 19 20 21 22 21 20 21 22 22 21 21 21 22 24 25 27
12 12 12 12 11 11 10 11 11 11 11 12 13 14 14 16 17 18 18 18 19 20 21 22 23 24 24 23 23 26 27 26 26 25 24 23 23 24
13 13 12 12 11 11 10 10 11 11 12 12 13 14 14 16 17 18 19 19 20 21 22 23 24 25 25 25 25 28 29 30 30 29 27 24 22 22
13 13 12 11 11 11 10 10 11 11 12 13 13 13 14 15 16 17 18 19 20 21 22 23 24 25 26 26 26 27 29 29 29 28 28 27 25 22
13 12 11 11 11 11 11 11 11 11 12 13 14 13 14 14 16 17 18 18 19 20 22 23 24 25 26 25 25 26 27 27 26 25 25 26 25 24
Wind_Direction
299 299 298 298 297 296 295 295 294 292 291 289 288 287 286 284 282 279 277 275 272 269 267 265 263 261 259 258 256 255 254 252 251 251 250 248 247 247
299 299 299 299 298 297 296 295 294 293 291 289 288 286 285 283 281 279 277 275 273 270 268 266 263 261 259 257 256 254 253 251 250 249 248 246 245 245
300 300 299 299 298 297 296 295 294 293 291 290 288 287 285 283 281 279 277 275 273 271 269 266 263 260 257 255 253 252 250 249 248 246 245 243 242 242
300 300 300 300 299 298 297 296 295 294 293 291 289 288 286 284 282 279 278 276 274 271 268 265 262 258 255 252 250 248 247 246 244 243 241 240 239 238
301 302 302 301 300 300 299 297 296 295 294 292 290 288 286 284 282 280 278 276 273 271 267 264 260 257 254 251 248 245 243 242 240 239 237 236 236 234
303 303 303 303 302 301 300 299 298 297 295 293 291 289 286 283 283 280 278 277 274 270 266 262 259 255 252 250 247 244 241 239 237 235 233 232 231 230
305 305 305 304 304 303 303 302 300 298 296 294 292 289 286 285 285 283 280 276 272 269 264 261 258 254 251 247 244 241 238 235 233 231 229 227 226 225
306 306 306 306 306 305 305 304 302 300 297 293 290 288 289 291 289 285 280 274 269 267 264 260 256 251 247 243 239 236 232 228 226 224 222 221 220 219
308 308 308 309 308 308 308 307 306 304 300 295 292 293 296 296 293 288 283 277 268 265 264 257 251 244 238 234 230 226 222 220 218 216 215 214 213 213
310 311 313 313 313 313 312 311 311 309 306 303 302 302 302 303 303 299 293 285 276 270 264 254 247 241 236 230 225 220 218 216 214 212 211 210 209 208
313 315 317 318 319 320 320 320 321 323 324 324 324 324 327 330 332 330 322 312 297 286 278 264 255 248 241 234 227 223 219 216 213 210 208 206 206 206
315 317 320 322 325 328 334 342 350 355 358 4 10 16 17 12 1 350 339 328 316 304 291 279 266 256 249 243 236 229 223 219 215 212 210 208 206 205
317 320 323 329 335 344 359 15 27 38 45 47 50 45 33 17 6 358 350 343 334 323 311 297 283 270 256 249 243 235 228 222 217 214 211 209 208 206
323 328 334 343 356 17 40 53 60 61 60 59 52 38 24 16 12 6 358 352 348 344 341 339 330 289 254 243 241 235 228 222 217 213 210 208 206 204
336 346 358 15 42 62 69 70 68 66 62 54 43 32 27 27 23 16 11 10 10 18 30 46 58 67 96 228 238 226 220 215 212 209 206 204 203 202
357 16 43 68 77 79 77 73 69 63 56 48 41 39 40 40 35 31 31 33 40 51 58 64 66 70 69 74 86 129 178 191 196 196 196 196 196 196
44 71 84 86 86 83 76 70 64 56 50 46 49 51 51 47 42 40 45 51 57 63 71 73 70 73 76 79 86 94 114 137 153 167 176 182 186 188
88 92 92 90 86 80 73 67 58 52 51 55 61 62 59 52 48 47 51 58 64 70 76 79 78 77 76 79 88 93 99 111 125 140 153 164 173 178
99 97 94 89 83 76 71 65 58 54 60 66 71 70 65 58 54 51 52 61 70 76 80 82 81 78 76 80 88 96 99 105 113 124 139 151 161 168
102 98 92 86 80 73 68 64 58 62 72 77 79 77 70 62 57 54 55 62 72 78 81 83 83 82 82 82 87 93 98 101 106 114 123 133 146 156
103 98 90 82 75 68 65 63 64 74 83 86 85 82 73 65 60 57 59 65 71 78 81 82 84 86 87 87 90 94 97 100 103 107 111 117 128 140
103 96 88 79 71 67 66 69 75 84 91 92 91 86 78 71 65 62 61 65 70 77 81 83 84 87 90 91 93 95 98 100 104 109 113 117 121 128
101 95 86 79 72 67 67 74 84 91 96 97 95 91 84 78 73 70 68 67 69 75 80 82 84 85 88 92 93 95 97 99 100 103 109 114 120 127
Height
5681 5675 5668 5661 5654 5646 5639 5633 5627 5624 5621 5616 5610 5604 5599 5596 5594 5592 5592 5592 5593 5593 5595 5598 5601 5604 5608 5612 5617 5622 5628 5633 5639 5645 5651 5657 5662 5668
5666 5659 5652 5644 5636 5628 5621 5614 5607 5602 5600 5596 5591 5585 5580 5576 5574 5572 5571 5571 5571 5572 5573 5576 5579 5583 5587 5591 5596 5602 5608 5614 5621 5628 5635 5641 5648 5654
5650 5643 5635 5627 5619 5611 5603 5596 5588 5581 5578 5576 5570 5565 5561 5557 5555 5552 5551 5551 5551 5552 5553 5555 5558 5562 5565 5570 5575 5581 5587 5594 5602 5610 5617 5625 5632 5640
5634 5626 5618 5610 5602 5593 5585 5577 5570 5562 5557 5555 5552 5548 5544 5541 5539 5537 5536 5535 5535 5535 5536 5537 5540 5543 5546 5550 5555 5561 5567 5574 5583 5591 5600 5609 5617 5624
5618 5610 5601 5592 5584 5575 5567 5559 5552 5546 5541 5538 5536 5533 5530 5527 5526 5524 5523 5522 5522 5522 5522 5523 5525 5527 5530 5533 5537 5543 5549 5557 5565 5573 5582 5591 5600 5609
5602 5593 5584 5575 5567 5559 5551 5544 5538 5532 5528 5524 5522 5520 5518 5516 5514 5514 5513 5511 5511 5510 5510 5511 5512 5514 5516 5519 5524 5529 5534 5540 5548 5556 5565 5575 5584 5594
5587 5578 5569 5560 5552 5544 5538 5532 5526 5521 5517 5514 5512 5510 5509 5507 5506 5504 5504 5502 5502 5500 5501 5501 5502 5504 5505 5508 5512 5516 5521 5527 5534 5542 5551 5560 5570 5580
5573 5564 5555 5547 5539 5532 5526 5520 5515 5510 5507 5505 5504 5502 5502 5500 5499 5497 5496 5495 5495 5494 5493 5494 5494 5495 5497 5499 5503 5507 5512 5517 5524 5531 5539 5548 5558 5568
5560 5552 5544 5536 5529 5523 5517 5511 5507 5503 5500 5499 5499 5498 5497 5495 5493 5492 5491 5490 5489 5488 5488 5488 5489 5490 5491 5494 5497 5500 5505 5510 5516 5523 5531 5539 5549 5559
5548 5541 5534 5527 5520 5515 5510 5505 5502 5499 5497 5496 5495 5494 5493 5492 5490 5489 5488 5487 5486 5485 5485 5485 5485 5486 5488 5490 5493 5496 5500 5505 5510 5517 5524 5532 5541 5551
5539 5533 5526 5521 5515 5510 5505 5502 5500 5498 5496 5495 5494 5493 5492 5491 5489 5488 5487 5486 5485 5484 5483 5483 5483 5484 5485 5487 5489 5492 5496 5501 5506 5512 5519 5527 5535 5545
5533 5527 5521 5516 5512 5508 5504 5502 5500 5498 5497 5496 5495 5494 5492 5491 5490 5488 5487 5485 5483 5482 5481 5481 5481 5481 5482 5483 5485 5488 5491 5496 5501 5507 5514 5522 5530 5539
5528 5523 5518 5514 5511 5508 5505 5503 5501 5500 5499 5498 5497 5496 5494 5493 5491 5489 5487 5484 5482 5481 5479 5478 5478 5478 5478 5480 5481 5483 5486 5491 5496 5502 5509 5516 5525 5535
5525 5521 5517 5514 5511 5509 5507 5505 5504 5503 5502 5501 5500 5498 5497 5495 5492 5490 5487 5484 5482 5480 5478 5477 5477 5476 5476 5477 5478 5479 5482 5485 5490 5496 5503 5511 5520 5529
5523 5520 5518 5515 5513 5511 5510 5509 5507 5506 5505 5504 5503 5501 5499 5496 5494 5491 5488 5485 5482 5480 5479 5478 5477 5477 5476 5476 5476 5477 5478 5481 5485 5491 5498 5506 5515 5525
5522 5521 5519 5517 5516 5514 5513 5512 5511 5510 5509 5507 5505 5503 5501 5499 5497 5494 5490 5487 5485 5483 5482 5481 5480 5479 5478 5476 5476 5476 5476 5478 5482 5487 5494 5502 5511 5521
5523 5522 5521 5520 5519 5518 5517 5516 5515 5513 5512 5510 5509 5507 5505 5503 5500 5497 5494 5492 5489 5487 5486 5485 5483 5482 5481 5479 5478 5478 5478 5479 5482 5486 5493 5501 5509 5519
5525 5525 5524 5523 5523 5522 5521 5520 5518 5517 5515 5514 5512 5511 5509 5507 5505 5502 5499 5497 5495 5493 5491 5490 5489 5487 5486 5485 5484 5483 5483 5484 5486 5491 5496 5504 5511 5519
5528 5528 5527 5527 5526 5525 5524 5523 5522 5520 5519 5518 5517 5515 5514 5512 5510 5508 5505 5503 5501 5500 5498 5496 5495 5494 5493 5493 5491 5490 5490 5492 5494 5498 5503 5509 5517 5523
5531 5531 5531 5530 5530 5529 5528 5527 5525 5524 5523 5522 5521 5521 5520 5518 5516 5514 5512 5510 5508 5507 5505 5503 5502 5501 5501 5502 5500 5498 5499 5501 5503 5507 5511 5516 5523 5529
5534 5534 5534 5534 5533 5532 5531 5530 5529 5528 5528 5527 5527 5526 5525 5524 5523 5521 5519 5517 5515 5514 5513 5511 5510 5510 5510 5510 5510 5509 5509 5510 5513 5516 5520 5526 5532 5537
5537 5538 5537 5537 5536 5536 5535 5534 5533 5533 5532 5532 5532 5532 5531 5530 5529 5528 5526 5525 5523 5522 5521 5520 5519 5519 5519 5519 5520 5519 5520 5521 5524 5526 5529 5534 5540 5545
5541 5541 5541 5541 5540 5539 5538 5538 5537 5537 5537 5537 5537 5537 5537 5537 5536 5535 5533 5532 5531 5530 5529 5528 5528 5527 5528 5528 5529 5529 5530 5532 5534 5537 5540 5543 5547 5552